GEC3MB EDDF-KATL

Flight info

Callsign GEC3MB
Flight time N/A
Altitude 36000
Route OBOKA2E OBOKA Z28 DIBIR DCT BUDIP DCT GISEB DCT MIMVA DCT OTBED L60 PENIL M144 BAGSO DCT DOGAL/M083F340 DCT 55N020W 55N030W 55N040W 54N050W DCT NEEKO/N0472F340 N616B TOPPS/N0466F360 DCT ENE DCT BAF Q448 PTW J48 MOL DCT FLASK OZZZI2
Aircraft B77L/H-SDE1E2E3FGHIJ2J3J4J5M1RWXY/LB1D1

Departure

Time N/A
Airport Frankfurt Main Airport (EDDF)

Arrival

Time 2026-05-05 16:05
Airport Hartsfield Jackson Atlanta International Airport (KATL)
Time Latitude Longitude Altitude Speed Heading
2026-05-05 15:35 35.17779 -82.59752 35185 ft 439 kts 238°
2026-05-05 15:35 35.15637 -82.62383 34725 ft 436 kts 237°
2026-05-05 15:35 35.13480 -82.64973 34291 ft 433 kts 237°
2026-05-05 15:36 35.11324 -82.67523 33819 ft 430 kts 236°
2026-05-05 15:36 35.09177 -82.70054 33325 ft 427 kts 236°
2026-05-05 15:36 35.07052 -82.72563 32879 ft 423 kts 235°
2026-05-05 15:36 35.04950 -82.75050 32438 ft 419 kts 235°
2026-05-05 15:37 35.02874 -82.77505 31988 ft 413 kts 234°
2026-05-05 15:37 35.00823 -82.79937 31585 ft 409 kts 234°
2026-05-05 15:37 34.98798 -82.82339 31170 ft 406 kts 234°
2026-05-05 15:37 34.96811 -82.84692 30755 ft 403 kts 233°
2026-05-05 15:38 34.94808 -82.87059 30348 ft 399 kts 233°
2026-05-05 15:38 34.92820 -82.89399 29923 ft 396 kts 232°
2026-05-05 15:38 34.90833 -82.91707 29436 ft 393 kts 232°
2026-05-05 15:38 34.88859 -82.93988 28995 ft 389 kts 231°
2026-05-05 15:39 34.86905 -82.96243 28597 ft 385 kts 231°
2026-05-05 15:39 34.84968 -82.98480 28181 ft 382 kts 231°
2026-05-05 15:39 34.83121 -83.00616 27798 ft 378 kts 231°
2026-05-05 15:39 34.81248 -83.02782 27414 ft 375 kts 230°
2026-05-05 15:40 34.79364 -83.04961 27005 ft 372 kts 230°
2026-05-05 15:40 34.77496 -83.07117 26611 ft 369 kts 230°
2026-05-05 15:40 34.75642 -83.09256 26233 ft 366 kts 230°
2026-05-05 15:40 34.73802 -83.11377 25855 ft 363 kts 230°
2026-05-05 15:41 34.71973 -83.13483 25488 ft 361 kts 229°
2026-05-05 15:41 34.70156 -83.15575 25114 ft 359 kts 229°
2026-05-05 15:41 34.68349 -83.17652 24753 ft 356 kts 229°
2026-05-05 15:41 34.66575 -83.19693 24647 ft 356 kts 229°
2026-05-05 15:42 34.64749 -83.21793 24638 ft 357 kts 229°
2026-05-05 15:42 34.62970 -83.23838 24634 ft 357 kts 229°
2026-05-05 15:42 34.61169 -83.25906 24634 ft 356 kts 229°
2026-05-05 15:42 34.59369 -83.27971 24623 ft 356 kts 229°
2026-05-05 15:43 34.57571 -83.30033 24627 ft 355 kts 229°
2026-05-05 15:43 34.55781 -83.32082 24401 ft 349 kts 229°
2026-05-05 15:43 34.54036 -83.34079 23759 ft 340 kts 229°
2026-05-05 15:43 34.52327 -83.36042 22734 ft 338 kts 229°
2026-05-05 15:44 34.50648 -83.37975 21669 ft 337 kts 228°
2026-05-05 15:44 34.48950 -83.39931 20658 ft 339 kts 228°
2026-05-05 15:44 34.47228 -83.41913 20199 ft 339 kts 227°
2026-05-05 15:44 34.45524 -83.43870 19811 ft 336 kts 227°
2026-05-05 15:45 34.43832 -83.45811 19409 ft 334 kts 227°
2026-05-05 15:45 34.42154 -83.47736 19057 ft 331 kts 226°
2026-05-05 15:45 34.40485 -83.49648 18697 ft 329 kts 226°
2026-05-05 15:45 34.38832 -83.51541 18336 ft 326 kts 226°
2026-05-05 15:46 34.37188 -83.53424 17929 ft 324 kts 226°
2026-05-05 15:46 34.35585 -83.55259 17570 ft 320 kts 226°
2026-05-05 15:46 34.33974 -83.57101 17203 ft 317 kts 226°
2026-05-05 15:46 34.32384 -83.58919 16834 ft 313 kts 226°
2026-05-05 15:47 34.30811 -83.60716 16498 ft 309 kts 226°
2026-05-05 15:47 34.29779 -83.61892 16274 ft 307 kts 226°
2026-05-05 15:47 34.27699 -83.64213 15834 ft 302 kts 224°
2026-05-05 15:47 34.26131 -83.65881 15513 ft 298 kts 224°
2026-05-05 15:48 34.24578 -83.67520 15185 ft 295 kts 223°
2026-05-05 15:48 34.23040 -83.69145 14862 ft 292 kts 223°
2026-05-05 15:48 34.21515 -83.70761 14511 ft 293 kts 223°
2026-05-05 15:48 34.19992 -83.72378 14144 ft 299 kts 223°
2026-05-05 15:49 34.18415 -83.74053 13776 ft 305 kts 223°
2026-05-05 15:49 34.16817 -83.75750 13418 ft 305 kts 223°
2026-05-05 15:49 34.15232 -83.77433 13058 ft 302 kts 223°
2026-05-05 15:49 34.13664 -83.79097 12713 ft 298 kts 223°
2026-05-05 15:50 34.12120 -83.80735 12383 ft 294 kts 222°
2026-05-05 15:50 34.10595 -83.82352 12056 ft 290 kts 222°
2026-05-05 15:50 34.09095 -83.83943 11734 ft 285 kts 222°
2026-05-05 15:50 34.07640 -83.85503 11426 ft 281 kts 222°
2026-05-05 15:51 34.06189 -83.87064 11109 ft 278 kts 222°
2026-05-05 15:51 34.04758 -83.88602 10810 ft 274 kts 222°
2026-05-05 15:51 34.03340 -83.90126 10511 ft 273 kts 222°
2026-05-05 15:51 34.01918 -83.91651 10314 ft 273 kts 222°
2026-05-05 15:52 34.00508 -83.93162 10183 ft 268 kts 222°
2026-05-05 15:52 33.99142 -83.94625 10063 ft 258 kts 222°
2026-05-05 15:52 33.97802 -83.96003 9796 ft 250 kts 213°
2026-05-05 15:52 33.96180 -83.96735 9566 ft 256 kts 188°
2026-05-05 15:53 33.94354 -83.96762 9312 ft 268 kts 179°
2026-05-05 15:53 33.92511 -83.96667 9029 ft 269 kts 179°
2026-05-05 15:53 33.90676 -83.96570 8905 ft 260 kts 180°
2026-05-05 15:53 33.88883 -83.96484 8777 ft 258 kts 180°
2026-05-05 15:54 33.87081 -83.96407 8688 ft 262 kts 180°
2026-05-05 15:54 33.85246 -83.96328 8583 ft 266 kts 180°
2026-05-05 15:54 33.83398 -83.96247 8465 ft 265 kts 180°
2026-05-05 15:54 33.81557 -83.96169 8358 ft 264 kts 180°
2026-05-05 15:55 33.79722 -83.96092 8232 ft 263 kts 180°
2026-05-05 15:55 33.77930 -83.96017 8126 ft 260 kts 180°
2026-05-05 15:55 33.76125 -83.95943 8020 ft 258 kts 180°
2026-05-05 15:55 33.74374 -83.96148 7876 ft 252 kts 196°
2026-05-05 15:56 33.72681 -83.96738 7756 ft 255 kts 199°
2026-05-05 15:56 33.70975 -83.97375 7614 ft 258 kts 198°
2026-05-05 15:56 33.69259 -83.97993 7452 ft 257 kts 198°
2026-05-05 15:56 33.67545 -83.98591 7335 ft 256 kts 197°
2026-05-05 15:57 33.65841 -83.99185 7190 ft 253 kts 199°
2026-05-05 15:57 33.64402 -84.00147 7019 ft 248 kts 225°
2026-05-05 15:57 33.63455 -84.01874 6779 ft 253 kts 246°
2026-05-05 15:57 33.63063 -84.03948 6490 ft 256 kts 264°
2026-05-05 15:58 33.63038 -84.06021 6143 ft 241 kts 267°
2026-05-05 15:58 33.63099 -84.07979 5672 ft 229 kts 269°
2026-05-05 15:58 33.63159 -84.09821 5318 ft 214 kts 267°
2026-05-05 15:58 33.63182 -84.11559 5069 ft 202 kts 265°
2026-05-05 15:59 33.63187 -84.13171 4905 ft 185 kts 265°
2026-05-05 15:59 33.63186 -84.14647 4522 ft 175 kts 265°
2026-05-05 15:59 33.63186 -84.16112 4024 ft 175 kts 266°
2026-05-05 15:59 33.63186 -84.17572 3508 ft 176 kts 265°
2026-05-05 16:00 33.63186 -84.19016 3196 ft 170 kts 265°
2026-05-05 16:00 33.63180 -84.20395 3023 ft 159 kts 265°
2026-05-05 16:00 33.63185 -84.21647 2999 ft 145 kts 264°
2026-05-05 16:00 33.63186 -84.22867 3016 ft 147 kts 265°
2026-05-05 16:01 33.63186 -84.24095 2995 ft 147 kts 265°
2026-05-05 16:01 33.63185 -84.25324 2989 ft 148 kts 265°
2026-05-05 16:01 33.63185 -84.26549 3004 ft 150 kts 266°
2026-05-05 16:01 33.63167 -84.27814 2974 ft 153 kts 266°
2026-05-05 16:02 33.63179 -84.29061 3019 ft 150 kts 266°
2026-05-05 16:02 33.63186 -84.30327 2921 ft 159 kts 266°
2026-05-05 16:02 33.63188 -84.31651 2672 ft 153 kts 264°
2026-05-05 16:02 33.63189 -84.32892 2465 ft 145 kts 264°
2026-05-05 16:03 33.63181 -84.34085 2290 ft 144 kts 265°
2026-05-05 16:03 33.63182 -84.35251 2122 ft 143 kts 263°
2026-05-05 16:03 33.63183 -84.36445 1923 ft 144 kts 262°
2026-05-05 16:03 33.63175 -84.37639 1737 ft 142 kts 265°
2026-05-05 16:04 33.63177 -84.38832 1551 ft 143 kts 266°
2026-05-05 16:04 33.63188 -84.40004 1355 ft 140 kts 265°
2026-05-05 16:04 33.63184 -84.41181 1206 ft 142 kts 263°
2026-05-05 16:04 33.63183 -84.42362 1039 ft 135 kts 265°
2026-05-05 16:05 33.63180 -84.43307 1042 ft 87 kts 270°
2026-05-05 16:05 33.63182 -84.43813 1039 ft 42 kts 270°
2026-05-05 16:05 33.63181 -84.44093 1038 ft 18 kts 270°
2026-05-05 16:05 33.63134 -84.44160 1038 ft 12 kts 188°
2026-05-05 16:06 33.63075 -84.44105 1039 ft 12 kts 102°
2026-05-05 16:06 33.63073 -84.44003 1039 ft 12 kts 90°
2026-05-05 16:06 33.63074 -84.43902 1039 ft 12 kts 90°
2026-05-05 16:06 33.63074 -84.43800 1040 ft 12 kts 90°
2026-05-05 16:07 33.63074 -84.43699 1040 ft 12 kts 90°
2026-05-05 16:07 33.63073 -84.43597 1040 ft 12 kts 90°
2026-05-05 16:07 33.63073 -84.43497 1040 ft 12 kts 90°
2026-05-05 16:07 33.63074 -84.43395 1041 ft 12 kts 89°
2026-05-05 16:08 33.63075 -84.43294 1041 ft 12 kts 90°
2026-05-05 16:08 33.63075 -84.43192 1041 ft 12 kts 90°
2026-05-05 16:08 33.63075 -84.43090 1040 ft 12 kts 90°
2026-05-05 16:08 33.63074 -84.42989 1040 ft 12 kts 90°
2026-05-05 16:09 33.63016 -84.42929 1040 ft 12 kts 168°
2026-05-05 16:09 33.62949 -84.42865 1040 ft 13 kts 147°
2026-05-05 16:09 33.62864 -84.42851 1040 ft 13 kts 180°
2026-05-05 16:09 33.62814 -84.42832 1040 ft 5 kts 113°
2026-05-05 16:10 33.62814 -84.42783 1040 ft 6 kts 90°
2026-05-05 16:10 33.62814 -84.42757 1040 ft 0 kts 90°
2026-05-05 16:10 33.62814 -84.42756 1040 ft 0 kts 90°